[[{"header":{"parameterUnit":"m.s-1","parameterCategory":1,"la1":30.2992,"la2":30.254,"lo1":-89.0895,"lo2":-89.0443,"dy":0.0025,"dx":0.0025,"nx":19,"ny":19,"refTime":"2026-03-08T21:00:00:Z","depth":0,"parameterNumber":2,"parameterNumberName":"U-component_of_WINDS"},"data":[0,0,0,-1.6819,-1.6819,-1.6834,-1.6834,-1.6854,-1.6855,0,0,0,0,0,0,0,0,0,0,0,-1.6817,-1.6817,-1.6819,-1.6819,-1.6834,-1.6834,-1.6854,-1.6855,0,0,0,0,0,0,0,0,0,0,0,-1.6816,-1.6817,-1.6817,-1.682,-1.6834,-1.6834,-1.6854,-1.6843,0,0,0,0,0,0,0,0,0,0,-1.6828,-1.6828,-1.6817,-1.6817,-1.682,-1.6834,-1.6834,-1.6842,-1.6843,-1.6849,0,-1.6855,0,-1.6855,-1.6856,-1.6856,0,0,0,-1.6818,-1.6827,-1.6829,-1.6817,-1.682,-1.6834,-1.6827,-1.6843,-1.6844,-1.6851,-1.6855,-1.6856,-1.6855,-1.6856,-1.6856,-1.6893,-1.6893,0,0,-1.6817,-1.682,-1.6828,-1.683,-1.6828,-1.6826,-1.6827,-1.6844,-1.6848,-1.6855,-1.6856,-1.6856,-1.6856,-1.6857,-1.6893,-1.6893,0,0,0,-1.6816,-1.682,-1.6821,-1.6829,-1.6832,-1.6827,-1.6828,-1.6848,-1.6848,-1.6856,-1.6856,-1.6857,-1.6857,-1.6893,-1.6893,-1.6906,0,0,0,-1.6815,-1.6819,-1.6821,-1.6823,-1.6831,-1.684,-1.6832,-1.6847,-1.6849,-1.6856,-1.6857,-1.6857,-1.6892,-1.6893,-1.6905,-1.6911,0,0,0,-1.6815,-1.6819,-1.6821,-1.6823,-1.6829,-1.6839,-1.6841,-1.6847,-1.6848,-1.6856,-1.6857,-1.6892,-1.6893,-1.6904,-1.691,-1.692,0,0,0,-1.6815,-1.6833,-1.6822,-1.6841,-1.6829,-1.6848,-1.6841,-1.6855,-1.6863,-1.6857,-1.6892,-1.6893,-1.6904,-1.6909,-1.692,-1.6929,-1.6933,0,0,-1.6839,-1.6836,-1.6848,-1.6838,-1.6859,-1.6845,-1.6869,-1.6874,-1.6873,-1.6886,-1.6887,-1.6905,-1.691,-1.692,-1.696,-1.6964,0,0,0,-1.6856,-1.6864,-1.6869,-1.6877,-1.6882,-1.6886,-1.6887,-1.6889,-1.6901,-1.688,-1.6913,-1.6915,-1.6921,-1.6925,-1.6929,-1.6933,-1.6895,-1.6895,-1.6895,-1.6893,-1.689,-1.6908,-1.6907,-1.6915,-1.6916,-1.6922,-1.6925,-1.692,-1.6928,-1.6931,-1.6956,-1.6961,-1.6963,-1.6968,-1.6937,-1.6937,-1.6937,-1.6937,-1.6927,-1.6937,-1.693,-1.6945,-1.6942,-1.6954,-1.6956,-1.6952,-1.6963,-1.6953,-1.6958,-1.6946,-1.6967,-1.6971,-1.6938,-1.6938,-1.6938,-1.6938,-1.6938,-1.6949,-1.6954,-1.6956,-1.6966,-1.6975,-1.6973,-1.6984,-1.6981,-1.6978,-1.6984,-1.6986,-1.6986,-1.6984,-1.6985,-1.6985,-1.6985,-1.6985,-1.6986,-1.6986,-1.6971,-1.6973,-1.6982,-1.6988,-1.6993,-1.6998,-1.6999,-1.7004,-1.7007,-1.7004,-1.7004,-1.6998,-1.697,-1.6962,-1.6987,-1.6987,-1.6986,-1.6986,-1.6986,-1.7004,-1.6996,-1.701,-1.7014,-1.7021,-1.7029,-1.7025,-1.7034,-1.7037,-1.7042,-1.7035,-1.7015,-1.7012,-1.7009,-1.7003,-1.7036,-1.7036,-1.7036,-1.7036,-1.7022,-1.702,-1.7033,-1.704,-1.7046,-1.7044,-1.706,-1.7061,-1.7061,-1.7063,-1.7058,-1.705,-1.7047,-1.7045,-1.7042,-1.7036,-1.7077,-1.7077,-1.7077,-1.7041,-1.7039,-1.7053,-1.7053,-1.7058,-1.7062,-1.7075,-1.7083,-1.7082,-1.7078,-1.7064,-1.7062,-1.7048,-1.7044,-1.7039,-1.7034,-1.7022,0,0]},{"header":{"parameterUnit":"m.s-1","parameterCategory":1,"la1":30.2992,"la2":30.254,"lo1":-89.0895,"lo2":-89.0443,"dy":0.0025,"dx":0.0025,"nx":19,"ny":19,"refTime":"2026-03-08T21:00:00:Z","depth":0,"parameterNumber":3,"parameterNumberName":"V-component_of_WINDS"},"data":[0,0,0,2.4956,2.4958,2.503,2.503,2.5116,2.5117,0,0,0,0,0,0,0,0,0,0,0,2.4931,2.4931,2.4956,2.4958,2.503,2.503,2.5116,2.5117,0,0,0,0,0,0,0,0,0,0,0,2.4931,2.4931,2.4932,2.4958,2.503,2.503,2.5116,2.5063,0,0,0,0,0,0,0,0,0,0,2.4994,2.4967,2.4931,2.4932,2.4959,2.503,2.503,2.5061,2.5067,2.508,0,2.5091,0,2.5106,2.5122,2.5122,0,0,0,2.4961,2.4962,2.4986,2.4932,2.4959,2.503,2.4998,2.5064,2.5071,2.5088,2.5093,2.5096,2.5107,2.5122,2.5123,2.5195,2.5195,0,0,2.4957,2.4941,2.4981,2.4989,2.4978,2.4996,2.5,2.5068,2.5072,2.5093,2.5098,2.5108,2.5123,2.5124,2.5195,2.5195,0,0,0,2.4943,2.4938,2.496,2.4986,2.4999,2.4998,2.5003,2.5069,2.5078,2.5099,2.5109,2.5123,2.5124,2.5194,2.5195,2.5191,0,0,0,2.4941,2.4931,2.4958,2.495,2.4998,2.5035,2.5003,2.5073,2.5081,2.5109,2.5123,2.5125,2.5194,2.5194,2.5191,2.5191,0,0,0,2.4927,2.4929,2.4938,2.4949,2.4979,2.5035,2.5047,2.5075,2.5087,2.5122,2.5125,2.5194,2.5194,2.519,2.5191,2.5207,0,0,0,2.4908,2.4932,2.4938,2.4969,2.4979,2.5032,2.5047,2.5087,2.5116,2.5124,2.5194,2.5195,2.519,2.5191,2.5207,2.5218,2.5221,0,0,2.493,2.4934,2.4954,2.4961,2.501,2.5022,2.507,2.5111,2.5127,2.5171,2.5173,2.5191,2.5191,2.5207,2.5245,2.5247,0,0,0,2.4955,2.4969,2.4985,2.5014,2.5046,2.5075,2.5111,2.5126,2.5165,2.5147,2.5201,2.5202,2.5212,2.5218,2.522,2.523,2.5197,2.5197,2.5197,2.4962,2.4985,2.5019,2.5051,2.5078,2.5116,2.5141,2.5168,2.518,2.5193,2.5206,2.5226,2.5233,2.5235,2.5245,2.5214,2.5214,2.5214,2.5214,2.4996,2.502,2.504,2.508,2.5104,2.5138,2.5176,2.5185,2.522,2.5218,2.5228,2.5223,2.5237,2.5247,2.5214,2.5214,2.5214,2.5214,2.5214,2.5004,2.5019,2.5039,2.5085,2.5117,2.5148,2.5183,2.5203,2.5221,2.5231,2.5248,2.5248,2.5252,2.5238,2.5238,2.5238,2.5238,2.5238,2.5238,2.5003,2.5026,2.5053,2.5093,2.5115,2.5147,2.5188,2.521,2.524,2.5252,2.5252,2.5265,2.5234,2.5226,2.524,2.5239,2.5239,2.5239,2.5239,2.5029,2.5028,2.5069,2.5092,2.5141,2.5174,2.52,2.5245,2.5266,2.5283,2.5294,2.5268,2.5274,2.5272,2.5266,2.5289,2.5289,2.5289,2.5289,2.5036,2.5041,2.509,2.5125,2.5162,2.5191,2.5239,2.5272,2.5305,2.532,2.532,2.5314,2.5311,2.5318,2.5316,2.531,2.5344,2.5344,2.5344,2.5054,2.5065,2.5101,2.5135,2.5176,2.5211,2.5257,2.5298,2.5335,2.5346,2.5333,2.5331,2.532,2.5316,2.5325,2.5321,2.5311,0,0]}]]